�N����,����,�~����,�C��,���x,�C��,����,���ϕ���,�ő�u�ԕ���,�ő厞����,���˗�,�I�_���x,�n�����x,�ő啗���N��,DTYPE
"22/07/20","00:10",0.0,24.3,93.7,999.1,292.4,0.1,0.6,243.1,0.00,23.3,25.0,"00:04:40",1
"22/07/20","00:20",0.0,24.3,93.9,999.6,332.4,0.5,1.1,347.5,0.00,23.3,25.0,"00:15:36",1
"22/07/20","00:30",0.0,24.2,94.1,999.1,347.9,0.5,1.2,357.3,0.00,23.2,25.0,"00:27:28",1
"22/07/20","00:40",0.0,24.2,94.2,999.8,325.7,0.6,1.0,354.5,0.00,23.2,24.9,"00:32:40",1
"22/07/20","00:50",0.0,24.1,94.3,999.3,301.5,0.3,0.9,333.3,0.00,23.2,24.9,"00:44:32",1
"22/07/20","01:00",0.0,24.0,94.5,999.3,344.5,0.6,1.1,11.3,0.00,23.1,24.9,"00:56:16",1
"22/07/20","01:10",0.0,24.0,94.5,999.3,336.8,0.6,1.1,5.9,0.00,23.1,24.8,"01:01:28",1
"22/07/20","01:20",0.0,23.9,94.7,999.3,349.3,0.3,1.0,0.8,0.00,23.0,24.9,"01:11:12",1
"22/07/20","01:30",0.0,23.9,94.8,999.8,357.8,0.6,1.3,354.5,0.00,23.1,24.9,"01:28:00",1
"22/07/20","01:40",0.0,23.9,94.9,999.8,334.7,0.7,1.3,355.3,0.00,23.1,24.9,"01:31:52",1
"22/07/20","01:50",0.0,23.9,94.9,999.6,352.2,0.7,1.4,342.2,0.00,23.1,24.9,"01:47:44",1
"22/07/20","02:00",0.0,23.8,95.0,999.1,350.9,0.7,1.4,351.0,0.00,23.0,24.9,"01:51:28",1
"22/07/20","02:10",0.0,23.8,95.1,999.6,352.6,0.7,1.4,9.4,0.00,23.0,24.9,"02:05:04",1
"22/07/20","02:20",0.0,23.6,95.2,999.8,318.4,0.6,1.8,336.0,0.00,22.8,24.9,"02:18:48",1
"22/07/20","02:30",0.0,23.6,95.3,999.6,339.1,1.2,2.2,338.9,0.00,22.8,24.7,"02:21:28",1
"22/07/20","02:40",0.0,23.5,95.4,999.6,342.8,0.8,2.0,319.1,0.00,22.8,25.0,"02:32:48",1
"22/07/20","02:50",0.0,23.5,95.4,999.6,346.3,0.8,2.0,331.6,0.00,22.8,24.7,"02:40:24",1
"22/07/20","03:00",0.0,23.4,95.5,999.3,342.6,0.7,1.9,358.9,0.00,22.7,24.7,"02:53:52",1
"22/07/20","03:10",0.0,23.3,95.6,999.6,316.2,0.5,1.0,355.7,0.00,22.6,25.2,"03:09:36",1
"22/07/20","03:20",0.0,23.2,95.6,999.6,313.6,0.6,1.7,320.2,0.00,22.5,24.9,"03:10:32",1
"22/07/20","03:30",0.0,23.0,95.7,999.6,107.3,0.1,0.6,130.9,0.00,22.3,24.8,"03:29:36",1
"22/07/20","03:40",0.0,23.0,95.8,1000.0,164.9,0.2,0.8,115.0,0.00,22.3,24.8,"03:38:40",1
"22/07/20","03:50",0.0,22.9,95.8,999.8,39.2,0.2,1.2,334.3,0.00,22.2,24.8,"03:48:56",1
"22/07/20","04:00",0.0,22.9,95.8,999.8,339.0,1.0,1.6,351.8,0.00,22.2,24.9,"03:51:44",1
"22/07/20","04:10",0.0,22.8,95.9,999.8,341.1,0.6,1.2,346.3,0.00,22.2,24.8,"04:06:48",1
"22/07/20","04:20",0.0,22.8,96.0,1000.0,302.8,0.7,1.3,308.8,0.00,22.2,24.7,"04:18:56",1
"22/07/20","04:30",0.0,22.6,96.0,999.8,296.8,0.6,1.1,317.0,0.00,22.0,24.6,"04:27:28",1
"22/07/20","04:40",0.0,22.5,96.1,1000.3,327.0,0.5,1.0,354.5,0.00,21.9,24.7,"04:36:40",1
"22/07/20","04:50",0.0,22.5,96.1,1000.0,299.2,0.6,1.0,341.1,0.00,21.9,24.8,"04:43:28",1
"22/07/20","05:00",0.0,22.3,96.2,1000.3,322.5,0.1,0.5,148.1,0.00,21.7,24.7,"04:54:00",1
"22/07/20","05:10",0.0,22.1,96.2,1000.5,270.8,0.5,0.8,242.8,0.00,21.5,24.7,"05:04:40",1
"22/07/20","05:20",0.0,22.1,96.3,1000.5,301.5,0.2,0.8,291.0,0.00,21.5,24.5,"05:14:00",1
"22/07/20","05:30",0.0,21.9,96.4,1000.8,296.3,0.2,0.8,343.3,0.00,21.3,24.6,"05:28:48",1
"22/07/20","05:40",0.0,21.9,96.4,1000.8,316.1,0.7,1.8,342.6,0.00,21.3,24.5,"05:34:56",1
"22/07/20","05:50",0.0,22.0,96.5,1001.2,324.6,0.8,1.3,355.4,0.00,21.5,24.6,"05:41:20",1
"22/07/20","06:00",0.0,22.1,96.5,1001.2,323.6,0.8,1.3,335.2,0.00,21.6,24.4,"05:55:12",1
"22/07/20","06:10",0.0,22.0,96.5,1001.2,276.6,0.3,1.0,330.7,0.00,21.5,24.5,"06:02:16",1
"22/07/20","06:20",0.0,22.2,96.6,1001.5,281.8,0.5,1.0,259.7,0.00,21.7,24.6,"06:14:00",1
"22/07/20","06:30",0.0,22.4,96.6,1001.5,328.7,0.3,0.8,265.8,0.01,21.9,24.6,"06:21:12",1
"22/07/20","06:40",0.0,22.6,96.6,1001.5,256.5,0.3,0.9,247.8,0.02,22.1,24.6,"06:34:16",1
"22/07/20","06:50",0.0,23.1,96.5,1001.2,340.2,0.5,1.1,357.2,0.04,22.6,24.5,"06:49:36",1
"22/07/20","07:00",0.0,23.3,96.5,1001.7,353.1,0.8,1.7,353.7,0.04,22.8,24.4,"06:52:48",1
"22/07/20","07:10",0.0,23.3,96.5,1001.7,328.5,0.5,1.4,339.5,0.03,22.8,24.6,"07:00:56",1
"22/07/20","07:20",0.0,23.6,96.5,1001.5,229.0,0.1,0.5,225.4,0.04,23.1,24.5,"07:14:00",1
"22/07/20","07:30",0.0,23.9,96.4,1001.5,211.5,0.3,1.0,237.9,0.09,23.3,24.4,"07:26:08",1
"22/07/20","07:40",0.0,24.8,96.4,1001.5,67.8,0.2,0.9,202.7,0.12,24.2,24.5,"07:30:24",1
"22/07/20","07:50",0.0,25.0,96.5,1001.2,332.1,0.7,2.0,348.0,0.14,24.4,24.5,"07:41:44",1
"22/07/20","08:00",0.0,25.5,95.9,1001.2,271.6,0.5,1.3,253.4,0.16,24.8,24.3,"07:51:28",1
"22/07/20","08:10",0.0,26.0,95.5,1001.5,358.0,0.3,1.3,345.6,0.18,25.3,24.5,"08:00:16",1
"22/07/20","08:20",0.0,25.0,94.9,1001.0,307.3,1.2,3.1,356.7,0.21,24.2,24.5,"08:14:56",1
"22/07/20","08:30",0.0,25.7,93.9,1001.0,247.3,0.5,1.9,241.8,0.22,24.7,24.5,"08:23:04",1
"22/07/20","08:40",0.0,26.5,93.2,1000.3,149.2,0.5,1.3,313.5,0.23,25.4,24.3,"08:37:52",1
"22/07/20","08:50",0.0,26.7,91.8,1000.8,228.2,0.8,2.4,225.5,0.25,25.3,24.2,"08:42:08",1
"22/07/20","09:00",0.0,27.3,89.4,1000.5,292.0,1.0,2.2,316.3,0.27,25.4,24.5,"08:53:04",1
"22/07/20","09:10",0.0,28.1,84.4,1000.8,206.2,1.1,2.5,234.7,0.29,25.3,24.5,"09:04:16",1
"22/07/20","09:20",0.0,29.4,79.9,1001.2,174.7,0.7,1.6,230.0,0.35,25.6,24.6,"09:12:00",1
"22/07/20","09:30",0.0,29.1,73.7,1002.2,345.2,1.5,3.2,348.2,0.29,24.0,24.5,"09:25:20",1
"22/07/20","09:40",0.0,29.0,74.5,1001.7,283.3,1.2,3.7,217.4,0.27,24.0,24.4,"09:30:02",1
"22/07/20","09:50",0.0,29.3,74.9,1001.7,222.7,1.8,3.9,213.0,0.35,24.4,24.5,"09:40:32",1
"22/07/20","10:00",0.0,29.3,73.0,1001.7,263.2,0.8,1.8,240.1,0.28,24.0,24.4,"09:56:24",1
"22/07/20","10:10",0.0,29.5,73.3,1001.5,319.9,1.3,2.8,354.1,0.32,24.3,24.5,"10:08:40",1
"22/07/20","10:20",0.0,28.8,74.3,1001.0,315.3,1.8,4.1,351.9,0.23,23.8,24.5,"10:15:28",1
"22/07/20","10:30",0.0,29.3,74.3,1001.2,317.5,1.6,3.4,349.5,0.48,24.3,24.8,"10:27:44",1
"22/07/20","10:40",0.0,28.7,73.3,1001.0,319.9,1.7,4.7,353.1,0.17,23.5,24.5,"10:31:04",1
"22/07/20","10:50",0.0,29.2,73.0,1001.0,287.0,1.3,3.5,253.2,0.38,23.9,24.5,"10:48:48",1
"22/07/20","11:00",0.0,30.2,70.2,1000.8,317.5,1.0,2.6,351.5,0.38,24.2,24.8,"10:53:20",1
"22/07/20","11:10",0.0,30.3,68.5,1001.2,311.9,1.2,3.2,319.8,0.43,23.9,24.7,"11:02:48",1
"22/07/20","11:20",0.0,30.9,65.2,1001.2,204.5,0.7,1.8,300.9,0.43,23.6,24.6,"11:10:32",1
"22/07/20","11:30",0.0,31.6,65.5,1001.7,194.2,0.7,1.9,110.2,0.50,24.4,24.6,"11:24:40",1
"22/07/20","11:40",0.0,30.5,65.3,1001.5,304.1,1.3,2.8,232.2,0.19,23.3,24.5,"11:33:04",1
"22/07/20","11:50",0.0,31.5,66.7,1001.7,319.0,0.7,1.9,333.1,0.54,24.6,24.8,"11:48:56",1
"22/07/20","12:00",0.0,31.8,65.3,1001.2,169.9,1.2,2.6,230.0,0.51,24.5,24.8,"11:54:40",1
"22/07/20","12:10",0.0,31.7,62.9,1001.2,237.1,1.0,2.2,309.0,0.44,23.8,25.0,"12:05:40",1
"22/07/20","12:20",0.0,32.0,61.5,1001.2,272.3,1.1,2.5,215.9,0.44,23.7,24.8,"12:10:16",1
"22/07/20","12:30",0.0,32.1,61.3,1001.2,238.5,1.6,3.9,239.2,0.65,23.8,24.8,"12:24:40",1
"22/07/20","12:40",0.0,31.8,61.1,1001.2,259.8,1.6,4.2,215.9,0.48,23.4,25.0,"12:32:32",1
"22/07/20","12:50",0.0,31.8,60.3,1001.0,239.0,1.7,4.2,233.9,0.59,23.2,25.0,"12:43:36",1
"22/07/20","13:00",0.0,32.4,59.3,1001.2,322.8,1.2,3.5,340.9,0.61,23.5,25.1,"12:57:52",1
"22/07/20","13:10",0.0,32.3,57.6,1001.2,278.4,1.2,3.2,242.2,0.59,22.9,25.2,"13:02:40",1
"22/07/20","13:20",0.0,33.1,57.7,1001.2,357.3,1.2,3.5,6.1,0.60,23.7,25.1,"13:14:48",1
"22/07/20","13:30",0.0,32.9,55.6,1001.5,233.4,1.5,4.2,235.3,0.61,22.9,25.1,"13:24:08",1
"22/07/20","13:40",0.0,32.6,56.1,1001.2,290.9,1.5,4.8,354.5,0.55,22.8,25.4,"13:38:08",1
"22/07/20","13:50",0.0,32.9,55.6,1001.0,259.0,1.3,3.2,266.4,0.60,22.9,25.2,"13:44:16",1
"22/07/20","14:00",0.0,33.1,53.2,1001.0,266.8,1.1,3.1,315.1,0.57,22.3,25.4,"13:58:40",1
"22/07/20","14:10",0.0,33.5,53.1,1000.5,267.8,1.1,3.6,219.5,0.57,22.7,25.4,"14:09:52",1
"22/07/20","14:20",0.0,33.0,52.9,1001.0,274.9,1.3,2.9,320.7,0.46,22.2,25.4,"14:14:08",1
"22/07/20","14:30",0.0,32.9,57.0,1000.3,285.4,1.2,2.9,333.7,0.36,23.3,25.3,"14:20:48",1
"22/07/20","14:40",0.0,32.8,54.3,1000.3,313.7,1.3,4.0,349.4,0.40,22.4,25.5,"14:38:08",1
"22/07/20","14:50",0.0,33.4,53.7,1000.3,260.7,0.8,2.8,4.2,0.42,22.8,25.6,"14:48:00",1
"22/07/20","15:00",0.0,33.5,52.8,1000.3,280.8,1.5,3.6,222.4,0.50,22.6,25.4,"14:52:08",1
"22/07/20","15:10",0.0,33.6,52.1,1000.3,245.2,1.5,4.1,229.9,0.49,22.5,25.4,"15:06:40",1
"22/07/20","15:20",0.0,33.7,49.5,1000.0,231.1,1.5,3.5,194.5,0.48,21.7,25.5,"15:10:48",1
"22/07/20","15:30",0.0,33.6,52.4,1000.0,352.3,1.8,3.7,3.3,0.41,22.6,25.6,"15:22:32",1
"22/07/20","15:40",0.0,34.5,49.1,1000.0,359.4,1.1,2.5,325.6,0.45,22.3,25.8,"15:33:36",1
"22/07/20","15:50",0.0,34.0,48.3,999.8,301.0,1.6,5.8,237.6,0.43,21.6,25.6,"15:41:44",1
"22/07/20","16:00",0.0,34.4,47.0,1000.0,348.6,1.1,2.9,351.0,0.40,21.5,25.5,"15:56:24",1
"22/07/20","16:10",0.0,34.8,48.1,1000.3,0.5,1.1,2.9,19.3,0.38,22.2,25.9,"16:07:04",1
"22/07/20","16:20",0.0,33.9,50.5,1000.0,354.3,1.2,2.2,42.6,0.24,22.2,25.8,"16:10:48",1
"22/07/20","16:30",0.0,34.0,50.3,1000.0,133.0,0.7,1.9,118.1,0.26,22.2,25.9,"16:22:40",1
"22/07/20","16:40",0.0,33.4,51.6,1000.3,172.3,0.5,1.7,130.6,0.13,22.1,25.8,"16:30:56",1
"22/07/20","16:50",0.0,33.4,50.9,1000.0,340.3,0.8,3.1,16.9,0.18,21.9,25.8,"16:46:16",1
"22/07/20","17:00",0.0,33.8,53.2,999.8,87.8,0.6,1.3,356.9,0.19,23.0,25.9,"16:54:08",1
"22/07/20","17:10",0.0,33.7,56.3,1000.0,102.7,0.8,2.0,129.8,0.25,23.8,26.0,"17:08:40",1
"22/07/20","17:20",0.0,33.2,58.0,1000.3,104.5,0.7,1.9,122.1,0.19,23.9,26.0,"17:17:36",1
"22/07/20","17:30",0.0,32.0,61.1,999.8,126.7,1.2,3.6,122.9,0.10,23.6,26.1,"17:26:40",1
"22/07/20","17:40",0.0,32.1,60.8,999.3,113.4,1.1,2.7,103.3,0.15,23.6,26.1,"17:36:48",1
"22/07/20","17:50",0.0,31.4,62.0,999.1,125.4,1.1,2.2,125.7,0.06,23.3,25.9,"17:41:04",1
"22/07/20","18:00",0.0,31.1,63.8,999.1,103.4,0.8,4.7,137.6,0.03,23.5,26.1,"17:55:28",1
"22/07/20","18:10",0.0,30.9,65.1,998.6,25.7,0.7,1.8,12.3,0.04,23.6,26.1,"18:05:44",1
"22/07/20","18:20",0.0,31.1,65.0,999.1,36.4,0.7,1.9,43.2,0.05,23.8,26.1,"18:19:20",1
"22/07/20","18:30",0.0,31.2,65.4,998.9,21.0,0.6,1.9,37.8,0.04,24.0,26.1,"18:22:08",1
"22/07/20","18:40",0.0,30.8,65.9,998.9,34.0,0.5,1.4,29.9,0.03,23.7,26.2,"18:38:40",1
"22/07/20","18:50",0.0,30.3,67.2,998.6,122.1,1.0,2.4,142.7,0.02,23.6,26.2,"18:46:16",1
"22/07/20","19:00",0.0,29.9,68.7,999.1,118.7,0.8,1.9,99.4,0.01,23.6,25.7,"18:57:04",1
"22/07/20","19:10",0.0,29.5,70.0,998.6,101.9,0.8,2.6,125.5,0.00,23.5,26.1,"19:04:32",1
"22/07/20","19:20",0.0,29.3,71.3,998.4,25.8,0.7,1.7,349.0,0.00,23.6,26.0,"19:12:56",1
"22/07/20","19:30",0.0,29.1,72.1,998.6,65.2,0.5,1.4,114.6,0.00,23.6,26.1,"19:25:04",1
"22/07/20","19:40",0.0,28.8,72.9,998.2,338.4,1.0,2.4,337.6,0.00,23.5,26.1,"19:39:12",1
"22/07/20","19:50",0.0,28.4,74.1,998.6,348.2,1.6,3.1,343.1,0.00,23.4,26.2,"19:41:36",1
"22/07/20","20:00",0.0,27.8,75.4,999.1,351.0,1.2,2.1,350.0,0.00,23.1,26.2,"19:51:36",1
"22/07/20","20:10",0.0,27.7,76.3,999.3,9.2,1.1,1.9,12.8,0.00,23.2,26.1,"20:02:56",1
"22/07/20","20:20",0.0,27.4,77.6,999.3,343.3,1.0,1.8,5.7,0.00,23.2,26.0,"20:10:48",1
"22/07/20","20:30",0.0,26.9,78.7,999.3,348.6,1.0,1.7,351.6,0.00,22.9,26.1,"20:20:02",1
"22/07/20","20:40",0.0,26.8,79.2,999.3,351.0,1.1,1.7,347.4,0.00,22.9,26.1,"20:31:44",1
"22/07/20","20:50",0.0,26.6,79.5,1000.0,349.0,1.1,1.7,356.0,0.00,22.8,25.8,"20:44:16",1
"22/07/20","21:00",0.0,26.3,79.8,1000.0,325.9,0.7,1.1,330.4,0.00,22.6,26.0,"20:50:32",1
"22/07/20","21:10",0.0,26.2,80.8,1000.3,344.1,1.1,1.9,2.4,0.00,22.7,26.1,"21:08:48",1
"22/07/20","21:20",0.0,25.9,81.7,1000.5,325.1,1.2,2.0,353.5,0.00,22.6,26.0,"21:10:16",1
"22/07/20","21:30",0.0,25.7,82.1,1000.8,318.6,1.3,2.8,308.4,0.00,22.5,26.0,"21:23:52",1
"22/07/20","21:40",0.0,25.7,81.9,1000.8,334.8,1.1,1.8,345.6,0.00,22.4,25.9,"21:30:56",1
"22/07/20","21:50",0.0,25.8,81.3,1000.3,330.0,1.1,1.7,352.4,0.00,22.4,26.1,"21:43:36",1
"22/07/20","22:00",0.0,25.6,81.3,1000.5,304.0,0.6,1.0,344.6,0.00,22.2,25.7,"21:51:28",1
"22/07/20","22:10",0.0,25.4,81.6,1000.3,324.4,0.7,1.8,326.2,0.00,22.1,25.8,"22:01:12",1
"22/07/20","22:20",0.0,25.4,82.0,1000.8,319.8,0.7,1.4,333.2,0.00,22.1,26.0,"22:19:52",1
"22/07/20","22:30",0.0,25.2,82.9,1000.5,327.5,1.2,2.0,337.1,0.00,22.1,25.8,"22:27:20",1
"22/07/20","22:40",0.0,24.9,83.7,1001.0,308.9,1.0,1.4,341.4,0.00,22.0,25.7,"22:38:00",1
"22/07/20","22:50",0.0,24.9,84.3,1001.0,337.4,1.0,1.6,348.6,0.00,22.1,25.6,"22:45:20",1
"22/07/20","23:00",0.0,24.7,84.8,1001.0,329.1,0.8,1.3,303.6,0.00,22.0,25.7,"22:56:48",1
"22/07/20","23:10",0.0,24.5,85.4,1000.8,337.2,1.3,2.4,345.6,0.00,21.9,25.7,"23:04:56",1
"22/07/20","23:20",0.0,24.5,86.0,1001.2,338.1,1.3,2.2,344.1,0.00,22.0,25.7,"23:11:36",1
"22/07/20","23:30",0.0,24.4,86.3,1000.8,323.2,1.3,2.2,338.8,0.00,22.0,25.8,"23:21:36",1
"22/07/20","23:40",0.0,24.4,86.5,1001.0,330.2,1.7,3.3,347.7,0.00,22.0,25.7,"23:36:24",1
"22/07/20","23:50",0.0,24.4,86.6,1000.8,342.7,1.7,2.6,330.8,0.00,22.1,25.5,"23:48:48",1
"22/07/20","24:00",0.0,24.4,86.7,1000.5,337.2,1.7,3.3,335.1,0.00,22.1,25.5,"23:53:20",1
